Regional Weather Roundup
Issued by NWS Newport/Morehead, NC

Current Version | Previous Version | Text Only | Print | Product List | Glossary On
Versions: 1 2 3 4 5 6 7 8 9 10 11 12 13 14 15 16 17 18 19 20 21 22 23 24 25 26 27 28 29 30 31 32 33 34 35 36 37 38 39 40 41 42 43 44 45 46 47 48 49 50
000 ASUS42 KMHX 302013 RWRMHX WEATHER ROUNDUP FOR EASTERN NORTH CAROLINA NATIONAL WEATHER SERVICE NEWPORT/MOREHEAD CITY NC 400 PM EDT MON MAY 30 2016 NOTE: "FAIR" INDICATES FEW OR NO CLOUDS BELOW 12,000 FEET WITH NO SIGNIFICANT WEATHER AND/OR OBSTRUCTIONS TO VISIBILITY NCZ015>017-031-032-045>047-102-103-302100- NORTH COAST CITY SKY/WX TMP DP RH WIND PRES REMARKS EDENTON RAIN N/A N/A N/A SE5 29.98F ELIZABETH CITY LGT RAIN 75 72 90 S6 29.97F KITTY HAWK RAIN 74 72 95 CALM 29.97F MANTEO NOT AVBL $$ NCZ045>047-081-094-103-104-302100- CENTRAL COAST CITY SKY/WX TMP DP RH WIND PRES REMARKS FRISCO HVY RAIN 72 70 93 E7 29.97F FOG $$ NCZ095-097-098-100-101-302100- SOUTHERN COAST CITY SKY/WX TMP DP RH WIND PRES REMARKS BEAUFORT PTSUNNY 77 71 82 E6 29.94F CEDAR ISLAND NOT AVBL JACKSONVILLE PTSUNNY 80 70 71 SE12 29.91F PINEY ISLAND LGT RAIN N/A N/A N/A W5 29.95F WILMINGTON CLOUDY 79 72 79 E10 29.90F $$ NCZ011>013-027>030-043-044-078>080-089-090>093-098-302100- COASTAL PLAIN CITY SKY/WX TMP DP RH WIND PRES REMARKS AHOSKIE LGT RAIN 76 72 87 CALM 29.96F CLINTON MOSUNNY 82 74 75 NE5 29.90F ELIZABETHTOWN PTSUNNY 81 71 71 SE9G16 29.89F GOLDSBORO NOT AVBL GREENVILLE CLOUDY 73 72 94 E6 29.97F HAVELOCK CLOUDY 78 70 76 E8 29.95F KENANSVILLE LGT RAIN 76 73 89 CALM 29.92F KINSTON CLOUDY 77 72 83 E10 29.94F NEW BERN CLOUDY 75 70 84 E8 29.96F RICHLANDS PTSUNNY 83 71 67 E10 29.91F ROCKY MOUNT LGT RAIN 78 72 81 E7 29.94F WASHINGTON RAIN 73 72 96 SE8 29.97F WHITEVILLE PTSUNNY 81 69 68 SE7G16 29.88S $$ AMZ130-135-150-152-154-156-158-170-250-252-270-ANZ085-086-088-633-658-670-302100- MARINE OBSERVATIONS STATION/POSITION TIME TEMP WIND PRES WAVE SWELL AIR SEA DIR/SP/G HT/PER HT/PER (UTC) (F) (DEG/KT/KT) (MB) (FT/S) (FT/S) CHESAPEAKE LIGHT 2000 69 170/ 11/ 11 1015.8 64 E VA BEACH 1950 67 64 190/ 10/ 12 1015.2 6/ 7 7/ 7 DUCK 1900 65 58 140/ 7/ 9 1014.8 2 E DUCK 1911 62 N/A 4/ 7 OREGON INLET 1900 72 75 170/ 9/ 11 1015.5 13E OREGON INLT 2000 71 N/A 5/ 6 5/ 6 HATTERAS CG 1900 71 75 80/ 5/ 6 1015.0 DIAMOND BUOY 1850 74 80 160/ 17/ 23 1015.0 6/ 7 2/13 CAPE LOOKOUT 2000 74 50/ 4/ 5 1013.5 BEAUFORT LAB 1900 74 75 30/ 6/ 10 1013.7 30 SE NEW RVR IN 1925 76 N/A 6/ 7 27 SE WRIGHTSVLE 1908 79 76 180/ 8/ 12 1013.1 5 SE WRIGHTSVLE 1908 77 77 110/ 8/ 12 1013.6 225 S CAPE HAT 1950 76 76 180/ 10/ 12 1014.6 5/ 8 5/ 8 41 SE CHARLESTON 1950 74 78 230/ 12/ 16 1011.7 4/ 8 3/ 8 $$

USA.gov is the U.S. government's official web portal to all federal, state and local government web resources and services.